STARLINK N

Last updated on June 19, 2020, 12:02 a.m. UTC

1 45742U 20038N   20170.66667824  .01853452  18682-2  34603-2 0  9993
2 45742  53.0004 272.2767 0098935  69.9508  15.9416 15.92115603  2124

Satellite is not in orbit.